User: anonymous   Login
Location: PACMO
(41.3967°N, 90.3760°W)
Time: 11:28:13
(UTC-06:00)
Language:

NOAA 19 - Orbit

View from above orbital plane
View from above orbital plane
View from above satellite
View from above satellite

Ground track
Ground track

The orbit data is extracted from the following two-line orbital elements,

1 33591U 09005A   17022.87999631 +.00000099 +00000-0 +78906-4 0  9991
2 33591 099.0726 347.8002 0013489 324.5560 035.4713 14.12146636409886
Epoch (UTC): 22 January 2017 21:07:11
Eccentricity: 0.0013489
inclination: 99.0726°
perigee height: 842 km
apogee height: 862 km
right ascension of ascending node: 347.8002°
argument of perigee: 324.5560°
revolutions per day: 14.12146636
mean anomaly at epoch: 35.4713°
orbit number at epoch: 40988

The dashed part of the orbit path shows where the satellite is in the earth's shadow,  

DLR